Location: Camaret
(48.2753°N, 4.5961°W)
Time: 04:18:28
(UTC+00:00)

GEOS 3 Rocket - Pass Details

Date: 29 October 2020
Orbit: 770 x 850 km, 115.0° (Epoch: 01 December)

Event Time Altitude Azimuth Distance (km) Brightness Sun altitude
Exits shadow 19:58:27 60° 219° (SW) 954 3.9 -29.5°
Maximum altitude 19:58:43 61° 234° (SW) 948 4.0 -29.5°
Drops below altitude 10° 20:04:03 10° 314° (NW) 2,475 6.8 -30.4°
Sets 20:06:26 0° 318° (NW) 3,419 7.6 -30.8°
